OE9GTV Weather Reports


time (UTC)temp
F
wind
direction
speed
knots
gust
knots
rain 1hr
in
rain 24hr
in
rain mn
in
humidity
%
barometer
mb
20260506220113 51 60 0.0 0.0 0.00 0.02 0.00 83 1008.9
20260506215113 51 61 0.0 0.0 0.00 0.02 0.02 83 1008.8
20260506214113 51 60 0.0 0.0 0.00 0.02 0.02 83 1008.7
20260506213113 51 60 0.0 0.0 0.00 0.02 0.02 82 1008.6
20260506212113 51 60 0.0 0.0 0.00 0.02 0.02 82 1008.7
20260506211113 51 60 0.0 0.0 0.00 0.02 0.02 82 1008.6
20260506210113 51 60 0.0 0.0 0.00 0.02 0.02 82 1008.6
20260506205113 51 60 0.0 0.0 0.00 0.02 0.02 82 1008.5
20260506204113 51 60 0.0 0.0 0.00 0.02 0.02 81 1008.6
20260506203113 52 60 0.0 0.0 0.00 0.02 0.02 81 1008.5
20260506202113 52 60 0.0 0.0 0.00 0.02 0.02 80 1008.4
20260506201113 52 60 0.0 0.0 0.00 0.02 0.02 80 1008.2
20260506200112 52 60 0.0 0.0 0.00 0.02 0.02 80 1008.2
20260506195113 52 60 0.0 0.0 0.00 0.02 0.02 79 1008.2
20260506194112 52 60 0.0 0.0 0.00 0.02 0.02 79 1008.1
20260506193112 52 60 0.0 0.0 0.00 0.02 0.02 78 1007.9
20260506192112 53 60 0.0 0.0 0.00 0.02 0.02 78 1007.8
20260506191112 53 60 0.0 0.0 0.00 0.02 0.02 78 1007.8
20260506190112 53 61 0.0 0.0 0.00 0.02 0.02 78 1007.6
20260506185112 53 60 0.0 0.9 0.00 0.02 0.02 78 1007.4
20260506184112 54 60 0.0 0.0 0.00 0.02 0.02 78 1007.2
20260506183112 54 60 0.0 0.0 0.00 0.02 0.02 78 1007.0
20260506182112 54 61 0.9 4.3 0.00 0.02 0.02 78 1006.9
20260506181112 54 60 0.9 2.6 0.00 0.02 0.02 78 1006.9
20260506180112 54 61 1.7 3.5 0.00 0.02 0.02 78 1006.7
20260506175111 54 61 1.7 4.3 0.00 0.02 0.02 78 1006.6
20260506174111 54 61 0.9 3.5 0.00 0.02 0.02 77 1006.7
20260506173112 54 61 2.6 5.2 0.00 0.02 0.02 77 1006.6
20260506172111 55 43 1.7 7.0 0.00 0.02 0.02 78 1006.4
20260506171111 55 46 3.5 7.0 0.00 0.02 0.02 78 1006.3
20260506170111 55 51 4.3 9.6 0.00 0.02 0.02 78 1006.2
20260506165111 55 49 2.6 6.1 0.00 0.02 0.02 78 1006.0
20260506164111 55 58 0.9 2.6 0.00 0.02 0.02 79 1005.9
20260506163111 55 59 1.7 4.3 0.00 0.02 0.02 79 1005.7
20260506162111 55 65 0.9 3.5 0.00 0.02 0.02 78 1005.5
20260506161111 55 65 0.0 1.7 0.02 0.02 0.02 78 1005.5
20260506160111 55 65 1.7 6.1 0.02 0.02 0.02 78 1005.5
20260506155111 55 59 2.6 6.1 0.02 0.02 0.02 77 1005.7
20260506154111 55 46 4.3 7.8 0.02 0.02 0.02 76 1005.8
20260506153110 55 212 2.6 5.2 0.02 0.02 0.02 73 1006.1
20260506152110 56 213 1.7 4.3 0.02 0.02 0.02 70 1006.0
20260506151115 56 246 4.3 12.2 0.01 0.01 0.01 66 1006.2
20260506150115 58 190 8.7 20.0 0.00 0.00 0.00 59 1005.6
20260506145115 60 219 7.0 20.0 0.00 0.00 0.00 56 1005.0
20260506144115 61 204 7.0 21.7 0.00 0.00 0.00 58 1004.1
20260506143115 62 220 6.1 16.5 0.00 0.00 0.00 54 1004.0
20260506142115 64 210 5.2 17.4 0.00 0.00 0.00 53 1003.7
20260506141115 65 5 2.6 7.0 0.00 0.00 0.00 54 1003.4
20260506140115 65 15 7.8 15.6 0.00 0.00 0.00 57 1003.0
20260506135115 66 22 6.1 12.2 0.00 0.00 0.00 60 1003.1
20260506134115 66 343 4.3 10.4 0.00 0.00 0.00 59 1003.1
20260506133115 67 355 3.5 8.7 0.00 0.00 0.00 59 1002.8
20260506132115 67 348 2.6 6.1 0.00 0.00 0.00 56 1002.8
20260506131115 67 334 2.6 6.1 0.00 0.00 0.00 57 1002.8
20260506130114 67 341 1.7 4.3 0.00 0.00 0.00 58 1002.7
20260506125115 66 57 0.9 4.3 0.00 0.00 0.00 59 1002.7
20260506124114 65 73 1.7 6.1 0.00 0.00 0.00 61 1002.7
20260506123114 64 51 0.9 5.2 0.00 0.00 0.00 62 1002.9
20260506122114 64 26 1.7 5.2 0.00 0.00 0.00 64 1002.8
20260506121114 62 24 1.7 4.3 0.00 0.00 0.00 69 1002.8
20260506120114 62 22 2.6 5.2 0.00 0.00 0.00 67 1003.0
20260506115114 62 15 1.7 4.3 0.00 0.00 0.00 67 1003.3
20260506114114 62 15 1.7 3.5 0.00 0.00 0.00 67 1003.2
20260506113114 62 16 1.7 3.5 0.00 0.00 0.00 66 1003.2
20260506112114 62 15 1.7 5.2 0.00 0.00 0.00 66 1003.0
20260506111114 62 9 3.5 7.8 0.00 0.00 0.00 66 1002.9
20260506110114 62 5 2.6 5.2 0.00 0.00 0.00 65 1002.9
20260506105114 61 360 2.6 6.1 0.00 0.00 0.00 66 1002.8
20260506104113 61 19 2.6 7.8 0.00 0.00 0.00 67 1003.0
20260506103114 62 355 1.7 6.1 0.00 0.00 0.00 67 1003.0
20260506102114 62 5 1.7 5.2 0.00 0.00 0.00 67 1003.1
20260506101114 62 17 3.5 7.0 0.00 0.00 0.00 66 1003.1
20260506100114 62 20 2.6 6.1 0.00 0.00 0.00 63 1003.3
20260506095114 62 9 2.6 6.1 0.00 0.00 0.00 64 1003.6
20260506094113 62 350 1.7 5.2 0.00 0.00 0.00 66 1003.5
20260506093113 62 21 2.6 6.1 0.00 0.00 0.00 66 1003.4
20260506092113 63 360 2.6 6.1 0.00 0.00 0.00 65 1003.5
20260506091114 61 350 2.6 5.2 0.00 0.00 0.00 69 1003.3
20260506090113 60 254 2.6 4.3 0.00 0.00 0.00 71 1003.5
20260506085113 60 248 1.7 5.2 0.00 0.00 0.00 70 1003.5
20260506084113 59 217 0.9 4.3 0.00 0.00 0.00 74 1003.6
20260506083113 58 216 1.7 3.5 0.00 0.00 0.00 75 1003.4
20260506082113 57 216 0.0 1.7 0.00 0.00 0.00 77 1003.7
20260506081113 57 216 0.9 2.6 0.00 0.00 0.00 78 1003.6
20260506080113 56 216 0.0 0.9 0.00 0.00 0.00 79 1003.8
20260506073112 55 216 0.0 0.0 0.00 0.00 0.00 81 1003.6
20260506072112 55 216 0.0 1.7 0.00 0.00 0.00 82 1003.7
20260506071112 54 216 0.0 2.6 0.00 0.00 0.00 83 1003.5
20260506070112 54 216 0.0 0.0 0.00 0.00 0.00 83 1003.8
20260506062112 53 216 0.0 0.0 0.00 0.00 0.00 83 1003.8
20260506061112 53 216 0.0 0.0 0.00 0.00 0.00 83 1004.0
20260506060112 52 216 0.0 0.0 0.00 0.00 0.00 83 1003.9
20260506051111 51 216 0.0 0.0 0.00 0.00 0.00 81 1004.0
20260506050112 51 216 0.0 0.0 0.00 0.00 0.00 81 1004.1
20260506045112 51 216 0.0 0.0 0.00 0.00 0.00 81 1004.1
20260506044111 51 216 0.0 0.0 0.00 0.00 0.00 80 1004.2
20260506043111 51 216 0.0 0.0 0.00 0.00 0.00 80 1004.4
20260506042111 51 216 0.0 0.0 0.00 0.00 0.00 80 1004.5
20260506041111 51 216 0.0 0.0 0.00 0.00 0.00 80 1004.5
20260506040111 51 216 0.0 0.0 0.00 0.00 0.00 80 1004.6
20260506035111 51 216 0.0 0.0 0.00 0.00 0.00 80 1004.9
20260506034111 51 216 0.0 0.0 0.00 0.00 0.00 80 1005.0
20260506033111 52 216 0.0 0.0 0.00 0.00 0.00 80 1005.1
20260506032111 52 216 0.0 0.0 0.00 0.00 0.00 80 1005.2
20260506031111 52 216 0.9 2.6 0.00 0.00 0.00 80 1005.2
20260506030111 52 216 0.9 2.6 0.00 0.00 0.00 80 1005.2
20260506025112 52 216 0.9 3.5 0.00 0.00 0.00 80 1005.4
20260506024111 52 216 1.7 3.5 0.00 0.00 0.00 80 1005.6
20260506023111 52 216 0.0 1.7 0.00 0.00 0.00 80 1005.8
20260506022111 52 216 0.0 0.0 0.00 0.00 0.00 80 1005.9
20260506021111 52 216 0.0 1.7 0.00 0.00 0.00 80 1005.8
20260506020111 52 216 1.7 3.5 0.00 0.00 0.00 81 1005.9
20260506015110 52 216 0.9 3.5 0.00 0.00 0.00 81 1005.9
20260506014110 52 216 2.6 5.2 0.00 0.00 0.00 81 1006.0
20260506013110 52 216 1.7 4.3 0.00 0.00 0.00 81 1006.2
20260506012110 52 216 1.7 4.3 0.00 0.00 0.00 81 1006.2
20260506011110 51 216 1.7 5.2 0.00 0.00 0.00 80 1006.2
20260506010110 51 216 2.6 5.2 0.00 0.00 0.00 80 1006.4
20260506005110 51 216 3.5 5.2 0.00 0.00 0.00 79 1006.3
20260506004111 51 216 1.7 4.3 0.00 0.00 0.00 79 1006.2
20260506003110 51 216 0.9 1.7 0.00 0.00 0.00 78 1006.5
20260506002110 51 216 0.0 1.7 0.00 0.00 0.00 78 1006.6
20260506001110 51 216 0.9 3.5 0.00 0.00 0.00 77 1006.9
20260506000110 51 216 0.0 0.0 0.00 0.00 0.00 76 1006.9
20260505235110 52 216 0.0 0.0 0.00 0.00 0.00 76 1006.8
20260505234110 52 216 0.0 0.0 0.00 0.00 0.00 75 1006.6
20260505233109 52 216 0.0 0.0 0.00 0.00 0.00 75 1006.7
20260505232109 52 216 0.0 0.0 0.00 0.00 0.00 74 1006.9
20260505231109 52 216 0.0 0.0 0.00 0.00 0.00 74 1006.9
20260505230109 53 216 0.0 0.9 0.00 0.00 0.00 73 1006.9
20260505225109 53 216 0.0 0.0 0.00 0.00 0.00 72 1007.0
20260505224110 53 216 0.0 0.0 0.00 0.00 0.00 72 1007.1
20260505223114 54 216 0.0 0.0 0.00 0.00 0.00 71 1007.1
20260505222114 54 216 0.0 0.9 0.00 0.00 0.00 71 1007.0
20260505221114 54 216 0.9 1.7 0.00 0.00 0.00 71 1007.0